Home > Weather > Berlin > Past weeks

Flag for Germany Past Weather in Berlin, Berlin, Germany — Yesterday and Last 2 Weeks

Now
75 °F

Passing clouds.


Feels Like: 77 °F
Forecast: 64 / 89 °F
Wind: 7 mph from East

Location: Berlin-Tegel

Current Time: Aug 27, 2016 at 10:47:11 PM

Latest Report: Aug 27, 2016 at 10:20 PM


Visibility: N/A

Pressure: 30.07 "Hg

Humidity: 65%

Dew Point: 63 °F

Location of BerlinLocation

Past Weather in Berlin — Graph

°F

Berlin Temperature Yesterday

Maximum temperature yesterday: 93 °F (at 3:20 PM)
Minimum temperature yesterday: 64 °F (at 4:20 AM)
Average temperature yesterday: 78 °F

High & Low Weather Summary for the Past Weeks

 TemperatureHumidityPressure
High93 °F (Aug 26, 3:20 PM)100% (Aug 17, 3:50 AM)30.33 "Hg (Aug 17, 3:50 AM)
Low46 °F (Aug 17, 5:50 AM)12% (Aug 26, 4:20 PM)29.80 "Hg (Aug 18, 4:20 PM)
Average67 °F64%30.08 "Hg
* Reported Aug 12 9:20 PM — Aug 27 9:20 PM, Berlin, Weather by CustomWeather, © 2016

Note: Actual official high and low records may vary slightly from our data, if they occured in-between our weather recording intervals... More about our weather records

Advertising

Berlin Weather History for the Previous 24 Hours

Scroll right to see more
 ConditionsComfort  
Time TempWeatherWind HumidityBarometerVisibility
9:20 PM
Sat, Aug 27
77 °FPassing clouds.7 mph61%30.07 "HgN/A
8:50 PM79 °FPassing clouds.7 mph58%30.07 "HgN/A
8:20 PM81 °FPassing clouds.8 mph54%30.07 "HgN/A
7:50 PM82 °FPassing clouds.7 mph48%30.07 "HgN/A
7:20 PM84 °FPassing clouds.6 mph43%30.04 "HgN/A
6:50 PM86 °FPassing clouds.6 mph40%30.04 "HgN/A
6:20 PM88 °FPassing clouds.6 mph38%30.04 "HgN/A
5:50 PM88 °FPassing clouds.6 mph38%30.07 "HgN/A
5:20 PM88 °FPassing clouds.7 mph35%30.07 "HgN/A
4:50 PM90 °FPassing clouds.6 mph33%30.07 "HgN/A
4:20 PM88 °FPassing clouds.7 mph35%30.07 "HgN/A
3:50 PM90 °FSunny.6 mph31%30.07 "Hg10 mi
3:20 PM88 °FPassing clouds.5 mph33%30.09 "HgN/A
2:50 PM86 °FPassing clouds.6 mph35%30.09 "HgN/A
2:20 PM86 °FPassing clouds.5 mph38%30.09 "HgN/A
1:50 PM86 °FSunny.6 mph40%30.09 "Hg10 mi
1:20 PM84 °FSunny.5 mph40%30.09 "Hg10 mi
12:50 PM82 °FPassing clouds.7 mph42%30.09 "HgN/A
12:20 PM82 °FSunny.5 mph45%30.12 "Hg10 mi
11:50 AM81 °FPassing clouds.5 mph48%30.12 "HgN/A
11:20 AM79 °FSunny.6 mph54%30.12 "Hg10 mi
10:50 AM77 °FPassing clouds.7 mph57%30.12 "HgN/A
10:20 AM75 °FPassing clouds.7 mph57%30.12 "HgN/A
9:50 AM73 °FPassing clouds.8 mph65%30.12 "HgN/A
9:20 AM72 °FPassing clouds.7 mph65%30.12 "HgN/A
8:50 AM70 °FPassing clouds.8 mph69%30.12 "HgN/A
8:20 AM68 °FPassing clouds.7 mph73%30.09 "HgN/A
7:50 AM66 °FPassing clouds.6 mph73%30.09 "HgN/A
7:20 AM64 °FPassing clouds.6 mph78%30.09 "HgN/A
6:50 AM63 °FClear.1 mph77%30.09 "Hg10 mi
6:20 AM63 °FClear.1 mph77%30.07 "Hg10 mi
5:50 AM63 °FClear.1 mph73%30.07 "Hg10 mi
5:20 AM63 °FClear.1 mph73%30.07 "Hg10 mi
4:50 AM66 °FPassing clouds.3 mph64%30.07 "HgN/A
4:20 AM66 °FClear.2 mph64%30.07 "Hg10 mi
3:50 AM64 °FClear.5 mph73%30.07 "Hg10 mi
3:20 AM66 °FClear.2 mph68%30.07 "Hg10 mi
2:50 AM68 °FClear.2 mph60%30.07 "Hg10 mi
2:20 AM70 °FClear.5 mph57%30.07 "Hg10 mi
1:50 AM70 °FClear.1 mph57%30.04 "Hg10 mi
1:20 AM72 °FClear.3 mph53%30.04 "Hg10 mi
12:50 AM73 °FClear.2 mph50%30.04 "Hg10 mi
12:20 AM73 °FClear.2 mph47%30.04 "Hg10 mi
11:50 PM
Fri, Aug 26
75 °FClear.3 mph44%30.04 "Hg10 mi
11:20 PM73 °FClear.5 mph47%30.04 "Hg10 mi
10:50 PM75 °FPassing clouds.7 mph44%30.04 "HgN/A
10:20 PM77 °FClear.6 mph39%30.04 "Hg10 mi
Weather by CustomWeather, © 2016

See weather overviewHow to use our weather pages